Location: Unspecified
(48.8656°N, 0.0000°E)
Time: 15:15:11
(UTC+00:00)

Vanguard 3 - Pass Details

Date: 19 June 2019
Orbit: 507 x 3264 km, 33.4° (Epoch: 20 July)

Event Time Altitude Azimuth Distance (km) Brightness Sun altitude
Rises 11:22:41 0° 214° (SW) 5,875 11.7 63.4°
Reaches altitude 10° 11:29:03 10° 197° (SSW) 4,235 11.3 63.8°
Maximum altitude 11:34:39 16° 166° (SSE) 3,181 10.9 64.0°
Drops below altitude 10° 11:38:58 10° 132° (SE) 3,104 10.6 64.2°
Sets 11:42:29 0° 110° (ESE) 3,648 10.7 64.3°
